Overview Statistics Trail Chart Weather Telemetry Raw packets
 

This is the latest recevied weather packets stored in our database for station/object KD4EG. If no packets are shown the sender has not sent any weather packets the latest 10 day(s).

<< 15 16 17 18 19 20 21 >>
Time Temp. Humidity Pressure Rain* Wind** Luminosity Snow
1788540629 35° C 48% 1018.2 hPa 0 mm - 624 W/m² -
1788540324 34.44° C 51% 1018.4 hPa 0 mm - 662 W/m² -
1788540020 34.44° C 51% 1018.5 hPa 0 mm - 621 W/m² -
1788539719 34.44° C 51% 1018.5 hPa 0 mm - 606 W/m² -
1788539415 33.89° C 51% 1018.7 hPa 0 mm - 596 W/m² -
1788539109 33.89° C 51% 1018.9 hPa 0 mm - 643 W/m² -
1788538805 33.89° C 53% 1018.9 hPa 0 mm - 669 W/m² -
1788538499 33.89° C 52% 1018.9 hPa 0 mm - 607 W/m² -
1788538195 34.44° C 51% 1018.9 hPa 0 mm - 640 W/m² -
1788537889 33.89° C 53% 1019 hPa 0 mm - 688 W/m² -
1788537585 33.89° C 52% 1018.9 hPa 0 mm - 711 W/m² -
1788537279 33.89° C 54% 1018.8 hPa 0 mm - 733 W/m² -
1788536977 33.89° C 53% 1018.9 hPa 0 mm - 714 W/m² -
1788536672 33.33° C 55% 1018.9 hPa 0 mm - 692 W/m² -
1788536367 33.33° C 55% 1018.9 hPa 0 mm - 743 W/m² -
1788536062 33.33° C 56% 1019 hPa 0 mm - 756 W/m² -
1788535759 33.33° C 56% 1019 hPa 0 mm - 729 W/m² -
1788535454 32.78° C 60% 1018.8 hPa 0 mm - 703 W/m² -
1788535153 33.33° C 61% 1019.3 hPa 0 mm - 664 W/m² -
1788534848 32.78° C 62% 1019 hPa 0 mm - 649 W/m² -
1788534544 32.78° C 62% 1019.4 hPa 0 mm - 704 W/m² -
1788534239 32.78° C 63% 1019 hPa 0 mm - 609 W/m² -
1788533936 31.67° C 64% 1019.3 hPa 0 mm - 555 W/m² -
1788533633 32.22° C 64% 1019.2 hPa 0 mm - 592 W/m² -
1788533328 31.67° C 65% 1019.3 hPa 0 mm - 581 W/m² -

* Rain latest hour (hover to see other rain measurements)
** Current wind speed in m/s (hover to see current wind gust speed)